Wind_Speed
55 56 55 53 51 52 49 47 43 39 43 44 38 35 33 41 44 40 37 34 34 34 38 37 36 33 31 30 31 32 32 32 29 30 31 29 28 27 28 29 30 30 29 25
54 52 54 55 53 54 54 52 49 47 41 43 45 40 38 38 45 44 43 40 39 41 42 38 37 37 35 33 34 35 36 36 34 34 35 33 32 31 31 32 35 34 34 35
52 53 54 52 46 47 52 54 53 48 48 42 50 48 42 39 39 45 42 43 45 45 45 43 42 41 38 39 39 41 40 39 39 38 37 37 36 35 36 38 38 39 40 42
50 54 55 61 51 45 48 49 53 48 48 49 49 49 43 42 37 38 40 38 47 50 50 48 45 43 43 45 46 46 43 42 41 41 41 41 41 41 42 43 43 43 44 45
49 49 53 57 59 53 52 50 48 49 49 48 51 52 50 47 46 45 45 42 44 47 52 53 54 56 51 51 45 45 46 46 45 44 43 42 44 46 47 47 46 45 47 48
49 50 50 52 52 50 50 46 42 43 47 50 51 49 52 47 47 44 41 40 44 52 53 50 50 49 53 51 48 51 53 51 51 49 51 48 49 51 51 50 50 51 50 53
48 49 49 51 49 47 47 47 44 34 37 45 50 53 57 55 51 49 49 44 41 44 44 45 47 49 51 52 53 56 56 57 57 55 54 52 54 57 60 56 56 56 56 62
46 49 49 50 50 48 50 52 47 46 44 39 42 46 49 54 54 52 51 49 46 47 51 50 51 54 55 56 57 61 62 61 66 63 57 60 58 61 59 60 61 59 61 60
46 46 48 49 50 51 52 56 56 49 42 42 45 40 41 40 43 44 42 44 44 43 46 49 50 59 54 54 60 65 73 67 74 71 61 48 51 57 61 63 65 64 60 58
45 44 47 47 49 55 54 53 50 51 45 44 43 45 42 37 36 37 40 39 38 36 45 49 54 64 54 56 57 65 56 52 53 49 57 58 53 58 62 63 55 57 58 59
46 47 44 41 46 50 51 58 51 46 47 48 47 43 47 40 38 37 39 38 38 38 40 41 40 41 49 53 49 49 51 54 54 53 54 57 56 55 57 57 56 57 59 62
43 43 42 39 38 31 38 41 43 43 44 48 49 44 44 42 42 38 40 41 41 41 43 45 42 41 40 41 44 47 50 51 54 53 51 51 52 52 53 54 56 57 56 59
36 41 43 42 46 44 41 38 37 38 43 44 44 47 46 43 41 38 37 38 40 41 42 41 38 40 41 41 42 44 46 48 48 49 51 52 50 48 47 50 54 57 60 63
44 40 40 42 46 48 47 42 38 38 38 38 37 39 39 40 40 41 40 38 38 37 36 36 39 40 39 38 39 41 45 49 49 47 44 42 44 47 50 53 57 61 64 65
46 42 40 41 42 41 46 51 43 44 43 38 34 33 34 35 37 38 38 37 37 37 38 39 40 40 40 42 41 43 46 46 44 39 41 44 46 49 55 59 61 61 61 57
39 39 35 36 37 39 38 40 40 36 40 40 32 32 34 39 40 39 38 38 38 38 40 40 42 44 47 46 44 42 42 39 38 40 43 49 52 55 59 60 60 60 57 56
43 40 41 40 40 41 42 45 44 39 39 41 38 38 39 39 38 36 36 37 40 42 45 46 45 44 41 38 36 33 33 38 43 49 53 56 57 58 59 60 61 62 61 61
27 30 32 41 44 45 43 43 40 38 43 46 45 42 40 40 39 39 41 44 45 45 43 40 38 37 32 28 31 35 39 44 48 51 55 60 59 58 59 60 62 62 62 64
32 30 28 32 33 28 30 35 36 37 35 37 40 46 44 42 42 43 44 42 36 34 32 28 26 26 30 34 38 42 45 50 53 57 61 60 56 56 57 59 61 63 65 69
26 23 26 32 33 29 25 24 24 24 27 31 35 36 35 33 34 31 31 30 27 21 20 22 27 31 35 38 43 49 53 56 59 58 58 55 52 55 59 61 64 68 71 75
23 27 29 30 30 30 25 21 20 21 16 18 20 22 21 21 24 27 26 25 20 24 30 34 36 39 43 45 49 53 56 58 56 52 51 53 55 59 63 68 73 76 80 84
13 19 23 23 24 26 23 22 22 19 14 14 14 15 17 19 20 21 23 24 29 35 38 39 42 45 48 50 53 56 53 49 48 51 54 58 62 66 72 76 81 84 85 87
14 14 15 16 18 19 19 21 21 21 19 18 17 16 16 17 21 26 30 35 38 40 41 43 46 49 49 48 42 41 44 48 52 57 60 65 70 75 79 81 84 87 89 92
18 17 15 19 21 20 17 16 17 18 19 19 20 21 23 26 30 33 37 42 45 45 45 45 41 35 35 37 41 46 51 55 59 62 67 72 76 80 83 87 89 91 95 98
27 27 26 25 26 28 28 27 27 26 26 26 27 29 32 35 39 42 43 42 38 33 32 30 31 34 40 45 49 53 57 62 66 69 73 78 80 83 86 90 93 97 101 104
8 14 27 38 38 35 37 39 37 37 36 35 34 36 37 40 39 34 27 22 23 26 30 34 38 44 48 52 56 60 64 67 71 76 79 80 82 86 90 93 97 100 102 102
Wind_Direction
222 223 226 229 225 227 230 232 231 227 227 231 233 236 237 235 232 232 233 240 241 239 240 241 241 241 245 253 258 262 267 270 272 271 269 269 273 275 276 276 275 272 275 280
222 223 223 224 225 229 231 230 232 231 226 234 234 241 237 237 232 233 233 232 240 242 243 244 248 246 247 252 262 267 266 268 269 271 274 273 274 272 272 272 273 271 273 277
221 221 220 219 220 226 231 232 234 234 232 230 234 238 237 235 236 238 242 234 237 244 245 246 245 247 249 251 256 262 264 266 268 269 272 273 275 276 275 274 274 272 273 278
221 223 221 222 226 233 232 234 236 237 234 229 228 235 237 240 241 241 249 242 242 242 245 247 246 246 249 252 255 259 262 266 269 269 271 272 271 275 278 276 274 275 277 279
222 223 225 225 226 236 235 237 237 235 237 235 237 238 238 243 243 248 249 251 246 239 241 247 248 252 247 254 257 256 260 265 269 269 268 267 273 276 279 277 275 275 275 275
222 224 225 226 227 229 231 234 239 237 239 240 240 243 246 240 243 246 241 253 247 244 244 249 255 248 250 254 256 257 261 263 263 264 267 269 272 275 277 276 275 277 278 280
224 226 226 228 227 226 227 225 223 229 232 238 241 239 242 244 240 245 246 252 253 239 242 257 253 252 253 257 257 260 262 261 262 263 263 268 271 276 279 275 276 277 279 285
226 226 228 228 230 229 225 223 229 236 238 239 240 237 240 244 247 251 252 251 253 242 252 258 264 263 257 263 264 267 265 271 268 266 264 263 271 274 275 276 273 271 279 282
233 227 228 229 231 228 227 229 230 235 240 245 245 245 242 246 249 252 251 250 252 250 251 257 265 267 255 270 269 272 263 269 264 268 263 274 271 271 273 274 272 269 276 281
233 231 234 230 230 229 229 232 239 242 245 249 248 248 247 248 248 252 253 253 251 256 254 253 259 253 251 256 267 265 260 267 266 270 274 270 272 274 273 275 283 285 286 288
230 234 231 230 232 231 234 238 239 244 247 250 253 253 250 251 251 253 259 262 265 263 258 261 251 256 263 264 264 267 276 277 277 279 279 282 282 282 284 289 292 292 292 293
220 217 208 220 221 221 234 237 238 238 240 241 248 251 250 249 251 253 255 257 259 260 256 254 255 262 269 277 279 279 278 279 279 281 283 285 285 285 285 285 287 289 290 290
212 221 223 222 218 216 224 231 231 234 237 242 242 246 249 250 251 252 254 256 254 255 257 259 263 264 264 265 267 269 271 274 276 279 281 282 284 287 291 291 291 291 292 297
215 219 223 225 225 226 222 224 223 223 231 233 237 239 241 246 248 251 252 252 256 261 263 266 268 269 271 274 275 278 279 281 283 283 286 289 291 291 293 296 298 300 302 303
224 228 232 236 235 232 229 230 242 243 246 244 245 249 251 252 253 256 258 257 257 257 260 264 266 270 272 273 277 279 281 281 281 286 289 292 296 300 303 304 303 301 299 296
216 218 225 228 230 224 226 224 228 237 243 243 248 250 253 255 256 257 257 258 260 264 266 268 270 270 272 276 278 277 275 278 289 296 297 301 304 305 305 299 294 292 290 288
220 224 222 220 220 223 220 223 233 232 233 241 243 246 249 251 254 254 257 260 262 265 265 266 270 273 274 271 272 279 291 293 298 302 304 306 305 302 298 292 289 287 287 286
207 220 227 230 231 236 234 241 247 241 235 238 239 245 247 250 252 255 259 261 262 264 268 269 266 264 267 276 281 289 294 297 300 302 303 305 300 293 290 286 286 287 289 287
207 207 212 218 227 235 234 242 250 252 249 249 250 249 252 255 257 259 260 261 258 254 253 260 270 281 291 294 293 295 298 299 300 300 299 296 290 288 288 288 289 291 294 296
211 217 226 228 240 250 241 236 241 247 251 251 251 249 251 253 256 252 247 246 247 257 283 292 293 295 294 295 297 299 297 296 293 290 288 290 291 290 290 292 295 296 295 295
223 224 225 228 236 235 241 245 243 251 254 250 249 252 255 256 254 256 257 258 276 294 299 300 299 294 291 291 292 290 288 287 286 289 290 290 293 294 296 298 298 297 298 299
223 237 240 242 246 239 242 245 250 243 245 245 246 245 249 253 257 254 261 277 290 296 294 293 291 290 289 286 285 285 286 287 288 290 293 296 298 300 300 300 300 301 302 302
238 241 243 240 245 249 258 246 246 244 253 264 268 271 263 265 278 283 286 289 288 287 283 281 283 283 284 283 284 287 290 292 292 295 299 301 301 300 300 301 302 302 303 304
247 247 241 242 237 249 253 252 253 256 264 266 268 264 268 274 279 282 284 283 281 280 280 281 282 284 289 291 290 291 291 294 298 300 300 299 300 301 302 303 304 305 305 305
242 248 245 242 245 246 250 249 253 259 262 262 268 270 271 272 272 276 279 278 278 280 279 278 286 288 288 290 292 294 296 298 299 299 299 300 302 304 304 304 304 305 305 307
150 233 246 247 243 240 241 240 242 246 250 255 260 263 268 273 274 277 274 272 277 281 285 289 290 291 292 293 294 295 298 299 298 299 301 303 303 302 303 304 305 309 311 312
Height
5732 5741 5748 5757 5763 5768 5772 5779 5784 5790 5794 5797 5801 5806 5811 5815 5820 5826 5830 5834 5838 5841 5838 5841 5842 5844 5846 5848 5849 5849 5850 5849 5848 5848 5848 5848 5847 5846 5845 5844 5842 5841 5840 5839
5726 5733 5742 5747 5754 5760 5765 5771 5777 5781 5787 5790 5794 5800 5804 5808 5812 5816 5821 5825 5829 5832 5832 5835 5838 5840 5840 5841 5843 5843 5843 5843 5842 5842 5842 5842 5841 5839 5839 5836 5835 5833 5833 5831
5718 5727 5734 5740 5747 5753 5759 5764 5769 5774 5779 5784 5788 5790 5794 5799 5804 5808 5812 5817 5820 5825 5825 5827 5829 5832 5833 5834 5835 5836 5836 5836 5836 5836 5835 5835 5834 5833 5830 5828 5826 5824 5823 5821
5709 5717 5726 5733 5740 5747 5752 5757 5761 5767 5770 5774 5780 5781 5787 5791 5797 5800 5805 5809 5813 5815 5818 5819 5821 5823 5826 5826 5826 5827 5827 5828 5828 5828 5828 5827 5826 5824 5823 5821 5818 5815 5814 5812
5705 5711 5718 5724 5734 5739 5744 5750 5754 5759 5763 5767 5772 5775 5778 5783 5787 5792 5796 5800 5802 5804 5808 5811 5812 5815 5816 5816 5817 5818 5818 5819 5820 5819 5819 5817 5816 5815 5813 5812 5809 5807 5805 5802
5694 5702 5709 5717 5723 5730 5736 5742 5747 5751 5755 5758 5765 5770 5768 5777 5780 5783 5787 5789 5792 5794 5798 5802 5804 5805 5807 5807 5807 5809 5809 5810 5810 5809 5809 5808 5807 5805 5803 5802 5799 5796 5793 5790
5688 5695 5703 5708 5715 5722 5728 5735 5738 5742 5743 5748 5755 5759 5762 5765 5773 5777 5779 5782 5784 5785 5790 5793 5796 5797 5797 5797 5797 5799 5798 5799 5799 5798 5797 5797 5796 5794 5793 5790 5787 5784 5781 5777
5681 5689 5695 5702 5708 5716 5720 5727 5730 5733 5738 5744 5746 5751 5757 5760 5763 5767 5769 5772 5776 5781 5782 5783 5784 5785 5787 5788 5788 5789 5787 5786 5786 5786 5786 5785 5785 5782 5780 5778 5774 5771 5768 5766
5673 5680 5689 5695 5701 5706 5712 5717 5723 5726 5730 5736 5739 5746 5750 5753 5755 5759 5762 5765 5769 5772 5773 5775 5775 5776 5775 5777 5776 5776 5774 5773 5774 5775 5772 5769 5770 5769 5767 5764 5761 5757 5753 5750
5666 5674 5681 5687 5691 5697 5704 5713 5715 5717 5722 5727 5732 5738 5743 5747 5749 5753 5756 5759 5761 5762 5764 5765 5766 5766 5765 5766 5767 5765 5765 5766 5764 5762 5762 5760 5758 5756 5753 5751 5748 5744 5741 5737
5659 5667 5674 5678 5683 5691 5696 5701 5707 5712 5716 5720 5726 5731 5737 5740 5741 5745 5748 5749 5752 5754 5755 5756 5755 5756 5756 5757 5757 5756 5755 5754 5752 5750 5750 5748 5746 5743 5741 5738 5734 5731 5727 5724
5651 5659 5666 5672 5678 5685 5689 5693 5698 5704 5710 5713 5718 5724 5729 5730 5733 5736 5739 5741 5743 5744 5746 5747 5747 5746 5745 5745 5745 5745 5745 5744 5743 5741 5739 5737 5734 5731 5728 5726 5723 5721 5717 5714
5646 5652 5659 5664 5673 5678 5683 5689 5694 5698 5702 5706 5710 5718 5721 5724 5726 5727 5729 5731 5733 5734 5734 5735 5736 5737 5737 5737 5736 5736 5735 5734 5732 5730 5729 5726 5724 5721 5718 5716 5713 5710 5706 5700
5641 5647 5654 5661 5666 5672 5677 5683 5687 5690 5694 5698 5703 5708 5712 5714 5717 5720 5720 5721 5723 5725 5726 5726 5727 5726 5725 5724 5723 5723 5722 5721 5720 5719 5717 5715 5713 5710 5708 5704 5700 5694 5687 5681
5636 5642 5649 5654 5659 5665 5671 5675 5679 5683 5686 5692 5697 5700 5703 5707 5710 5712 5713 5714 5715 5716 5717 5717 5716 5716 5715 5715 5715 5714 5713 5712 5710 5710 5708 5706 5703 5699 5694 5689 5683 5677 5670 5664
5633 5638 5643 5646 5651 5656 5661 5668 5673 5676 5680 5685 5690 5694 5697 5700 5702 5705 5707 5707 5707 5708 5709 5709 5709 5709 5709 5708 5707 5706 5704 5703 5701 5700 5698 5694 5690 5685 5679 5674 5668 5663 5657 5652
5629 5634 5638 5642 5646 5649 5654 5661 5664 5668 5673 5677 5681 5686 5689 5693 5695 5696 5698 5699 5699 5700 5700 5700 5701 5701 5700 5699 5699 5698 5695 5694 5691 5688 5685 5680 5674 5669 5663 5658 5653 5649 5644 5639
5625 5630 5634 5638 5641 5644 5651 5653 5657 5662 5665 5669 5672 5676 5682 5684 5686 5687 5689 5690 5689 5690 5692 5693 5694 5693 5692 5691 5690 5688 5685 5683 5679 5674 5670 5663 5659 5653 5648 5644 5640 5635 5629 5623
5623 5627 5631 5634 5639 5643 5646 5650 5653 5655 5661 5663 5666 5670 5673 5676 5678 5681 5682 5682 5682 5683 5683 5684 5685 5685 5684 5683 5680 5677 5673 5669 5665 5659 5654 5648 5644 5639 5636 5631 5626 5619 5613 5605
5621 5624 5628 5632 5635 5638 5643 5645 5647 5649 5654 5656 5659 5662 5665 5668 5672 5674 5673 5673 5674 5675 5677 5678 5679 5676 5674 5672 5669 5665 5660 5655 5650 5646 5641 5637 5631 5627 5622 5614 5608 5601 5594 5585
5619 5622 5625 5627 5631 5635 5639 5640 5642 5647 5652 5649 5653 5656 5660 5663 5665 5666 5667 5669 5670 5671 5671 5670 5668 5666 5663 5659 5655 5651 5648 5643 5639 5634 5629 5623 5616 5611 5603 5596 5589 5582 5574 5565
5616 5620 5621 5623 5627 5631 5633 5636 5640 5643 5644 5646 5649 5651 5654 5657 5660 5661 5663 5664 5664 5663 5662 5660 5657 5653 5650 5647 5644 5640 5635 5631 5626 5621 5614 5605 5600 5593 5586 5578 5569 5560 5552 5543
5614 5617 5618 5622 5624 5627 5628 5632 5635 5639 5642 5644 5647 5649 5651 5653 5655 5656 5656 5655 5654 5652 5649 5647 5645 5643 5640 5637 5632 5627 5622 5617 5611 5605 5598 5591 5584 5576 5569 5560 5549 5538 5529 5518
5609 5611 5614 5617 5621 5623 5627 5629 5632 5636 5638 5640 5642 5644 5646 5647 5647 5647 5647 5646 5643 5641 5638 5636 5634 5630 5627 5623 5618 5614 5610 5605 5598 5591 5584 5577 5569 5559 5548 5538 5528 5516 5504 5493
5604 5606 5609 5611 5614 5617 5620 5623 5626 5628 5631 5634 5635 5637 5638 5639 5639 5638 5637 5635 5632 5629 5627 5625 5622 5619 5617 5613 5609 5604 5598 5592 5584 5577 5569 5560 5550 5540 5529 5517 5505 5493 5476 5464
5597 5600 5601 5603 5604 5607 5610 5613 5617 5620 5622 5625 5628 5629 5630 5629 5628 5627 5625 5625 5624 5622 5620 5617 5614 5611 5607 5602 5597 5591 5584 5576 5568 5559 5550 5541 5531 5520 5510 5499 5486 5466 5454 5437